QPF
0.00 0.00 0.00 0.00 0.00 0.00 0.01 0.01 0.00 0.00 0.00 0.00 0.00 0.00 0.00 0.00 0.00 0.00 0.00 0.00 0.00 0.00 0.00 0.00 0.00 0.00 0.00 0.00 0.00 0.00 0.00 0.00 0.00 0.00 0.00 0.00 0.00 0.00 0.00 0.00 0.00 0.00 0.00
0.00 0.00 0.00 0.00 0.00 0.01 0.01 0.00 0.00 0.00 0.00 0.00 0.00 0.00 0.00 0.00 0.00 0.00 0.00 0.00 0.00 0.00 0.00 0.00 0.00 0.00 0.00 0.00 0.00 0.00 0.00 0.00 0.00 0.00 0.00 0.00 0.00 0.00 0.00 0.00 0.00 0.00 0.00
0.00 0.00 0.00 0.00 0.02 0.03 0.01 0.00 0.00 0.00 0.00 0.00 0.00 0.00 0.00 0.00 0.00 0.00 0.00 0.00 0.00 0.00 0.00 0.00 0.00 0.00 0.00 0.00 0.00 0.00 0.00 0.00 0.00 0.00 0.00 0.00 0.00 0.00 0.00 0.00 0.00 0.00 0.00
0.00 0.00 0.00 0.00 0.02 0.02 0.01 0.00 0.00 0.00 0.00 0.00 0.00 0.00 0.00 0.00 0.00 0.00 0.00 0.00 0.00 0.00 0.00 0.00 0.00 0.00 0.00 0.00 0.00 0.00 0.00 0.00 0.00 0.01 0.01 0.00 0.00 0.00 0.00 0.00 0.00 0.00 0.00
0.00 0.00 0.00 0.00 0.04 0.01 0.00 0.00 0.00 0.00 0.00 0.00 0.00 0.00 0.00 0.00 0.00 0.00 0.00 0.00 0.00 0.00 0.00 0.00 0.00 0.00 0.00 0.00 0.00 0.00 0.00 0.00 0.00 0.00 0.01 0.01 0.02 0.01 0.00 0.00 0.00 0.00 0.00
0.00 0.00 0.00 0.00 0.02 0.01 0.00 0.00 0.00 0.00 0.00 0.00 0.00 0.00 0.00 0.00 0.00 0.00 0.00 0.00 0.00 0.00 0.00 0.00 0.00 0.00 0.00 0.00 0.00 0.00 0.00 0.00 0.00 0.00 0.02 0.03 0.04 0.02 0.00 0.00 0.00 0.00 0.00
0.00 0.00 0.00 0.00 0.00 0.01 0.00 0.00 0.00 0.00 0.00 0.00 0.00 0.00 0.00 0.00 0.00 0.00 0.00 0.00 0.00 0.00 0.00 0.00 0.00 0.00 0.00 0.00 0.00 0.00 0.00 0.00 0.00 0.00 0.00 0.00 0.02 0.03 0.04 0.05 0.02 0.04 0.01
0.00 0.00 0.00 0.00 0.00 0.00 0.00 0.00 0.00 0.00 0.00 0.00 0.00 0.00 0.00 0.00 0.00 0.00 0.00 0.00 0.00 0.00 0.00 0.00 0.00 0.00 0.00 0.00 0.00 0.00 0.00 0.00 0.00 0.00 0.00 0.00 0.00 0.01 0.02 0.04 0.06 0.05 0.02
0.00 0.00 0.00 0.00 0.00 0.00 0.00 0.00 0.00 0.00 0.00 0.00 0.00 0.00 0.00 0.00 0.00 0.00 0.00 0.00 0.00 0.00 0.00 0.00 0.00 0.00 0.00 0.00 0.00 0.00 0.00 0.00 0.00 0.00 0.00 0.00 0.00 0.00 0.00 0.00 0.01 0.00 0.00
0.00 0.00 0.00 0.00 0.00 0.00 0.00 0.00 0.00 0.00 0.00 0.00 0.00 0.00 0.00 0.00 0.00 0.00 0.00 0.00 0.00 0.00 0.00 0.00 0.00 0.00 0.00 0.00 0.00 0.00 0.00 0.00 0.00 0.00 0.00 0.00 0.00 0.00 0.00 0.00 0.00 0.00 0.00
0.00 0.00 0.00 0.00 0.00 0.00 0.00 0.00 0.00 0.00 0.00 0.00 0.00 0.00 0.00 0.00 0.00 0.00 0.00 0.00 0.00 0.00 0.00 0.00 0.00 0.00 0.00 0.00 0.00 0.00 0.00 0.00 0.00 0.00 0.00 0.00 0.00 0.00 0.00 0.00 0.00 0.00 0.00
0.00 0.00 0.00 0.00 0.00 0.00 0.00 0.00 0.00 0.00 0.00 0.00 0.00 0.00 0.00 0.00 0.00 0.00 0.00 0.00 0.00 0.00 0.00 0.00 0.00 0.00 0.00 0.00 0.00 0.00 0.00 0.00 0.00 0.00 0.00 0.00 0.00 0.00 0.00 0.00 0.00 0.00 0.00
0.00 0.00 0.00 0.00 0.00 0.00 0.00 0.00 0.00 0.00 0.00 0.00 0.00 0.00 0.00 0.00 0.00 0.00 0.00 0.00 0.00 0.00 0.00 0.00 0.00 0.00 0.00 0.00 0.00 0.00 0.00 0.00 0.00 0.00 0.00 0.00 0.00 0.00 0.00 0.00 0.00 0.00 0.00
0.00 0.00 0.00 0.00 0.00 0.00 0.00 0.00 0.00 0.00 0.00 0.00 0.00 0.00 0.00 0.00 0.00 0.00 0.00 0.00 0.00 0.00 0.00 0.00 0.00 0.00 0.00 0.00 0.00 0.00 0.00 0.00 0.00 0.00 0.00 0.00 0.00 0.00 0.00 0.00 0.00 0.01 0.01
0.00 0.00 0.00 0.00 0.00 0.00 0.00 0.00 0.00 0.00 0.00 0.00 0.00 0.00 0.00 0.00 0.00 0.00 0.00 0.00 0.00 0.00 0.00 0.00 0.00 0.00 0.00 0.00 0.00 0.00 0.00 0.00 0.00 0.00 0.00 0.00 0.00 0.00 0.00 0.00 0.01 0.00 0.01
0.00 0.00 0.00 0.00 0.00 0.00 0.00 0.00 0.00 0.00 0.00 0.00 0.00 0.00 0.00 0.00 0.00 0.00 0.00 0.00 0.00 0.00 0.00 0.00 0.00 0.00 0.00 0.00 0.00 0.00 0.00 0.00 0.00 0.00 0.00 0.00 0.00 0.00 0.00 0.00 0.00 0.00 0.00
0.00 0.00 0.00 0.00 0.00 0.00 0.00 0.00 0.00 0.00 0.00 0.00 0.00 0.00 0.00 0.00 0.00 0.00 0.00 0.00 0.00 0.00 0.00 0.00 0.00 0.00 0.00 0.00 0.00 0.00 0.00 0.00 0.00 0.00 0.00 0.00 0.00 0.00 0.00 0.00 0.00 0.00 0.00
0.00 0.00 0.00 0.00 0.00 0.00 0.00 0.00 0.00 0.00 0.00 0.00 0.00 0.00 0.00 0.00 0.00 0.00 0.00 0.00 0.00 0.00 0.00 0.00 0.00 0.00 0.00 0.00 0.00 0.00 0.00 0.00 0.00 0.00 0.00 0.00 0.00 0.00 0.00 0.00 0.00 0.00 0.00
0.00 0.00 0.00 0.00 0.00 0.00 0.00 0.00 0.00 0.00 0.00 0.00 0.00 0.00 0.00 0.00 0.00 0.00 0.00 0.00 0.00 0.00 0.00 0.00 0.00 0.00 0.00 0.00 0.00 0.00 0.00 0.00 0.00 0.00 0.00 0.00 0.00 0.00 0.00 0.00 0.00 0.00 0.00
0.00 0.00 0.00 0.00 0.00 0.00 0.00 0.00 0.00 0.00 0.00 0.00 0.00 0.00 0.00 0.00 0.00 0.00 0.00 0.00 0.00 0.00 0.00 0.00 0.00 0.00 0.00 0.00 0.00 0.00 0.00 0.00 0.00 0.00 0.00 0.00 0.00 0.00 0.00 0.00 0.00 0.00 0.00
0.00 0.00 0.00 0.00 0.00 0.00 0.00 0.00 0.00 0.00 0.00 0.00 0.00 0.00 0.00 0.00 0.00 0.00 0.00 0.00 0.00 0.00 0.00 0.00 0.00 0.00 0.00 0.00 0.00 0.00 0.00 0.00 0.00 0.00 0.00 0.00 0.00 0.00 0.00 0.00 0.00 0.00 0.00
0.00 0.00 0.00 0.00 0.00 0.00 0.00 0.00 0.00 0.00 0.00 0.00 0.00 0.00 0.00 0.00 0.00 0.00 0.00 0.00 0.00 0.00 0.00 0.00 0.00 0.00 0.00 0.00 0.00 0.00 0.00 0.00 0.00 0.00 0.00 0.00 0.00 0.00 0.00 0.00 0.00 0.00 0.00
0.00 0.00 0.00 0.00 0.00 0.00 0.00 0.00 0.00 0.00 0.00 0.00 0.00 0.00 0.00 0.00 0.00 0.00 0.00 0.00 0.00 0.00 0.00 0.00 0.00 0.00 0.00 0.00 0.00 0.00 0.00 0.00 0.00 0.00 0.00 0.00 0.00 0.00 0.00 0.00 0.00 0.00 0.00
0.00 0.00 0.00 0.00 0.00 0.00 0.00 0.00 0.00 0.00 0.00 0.00 0.00 0.00 0.00 0.00 0.00 0.00 0.00 0.00 0.00 0.00 0.00 0.00 0.00 0.00 0.00 0.00 0.00 0.00 0.00 0.00 0.00 0.00 0.00 0.00 0.00 0.00 0.00 0.00 0.00 0.00 0.00
0.00 0.00 0.00 0.00 0.00 0.00 0.00 0.00 0.00 0.00 0.00 0.00 0.00 0.00 0.00 0.00 0.00 0.00 0.00 0.00 0.00 0.00 0.00 0.00 0.00 0.00 0.00 0.00 0.00 0.00 0.00 0.00 0.00 0.00 0.00 0.00 0.00 0.00 0.00 0.00 0.00 0.00 0.00
0.00 0.00 0.00 0.00 0.00 0.00 0.00 0.00 0.00 0.00 0.00 0.00 0.00 0.00 0.00 0.00 0.00 0.00 0.00 0.00 0.00 0.00 0.00 0.00 0.00 0.00 0.00 0.00 0.00 0.00 0.00 0.00 0.00 0.00 0.00 0.00 0.00 0.00 0.00 0.00 0.00 0.00 0.00
MSLP
1020.82 1021.49 1022.69 1022.67 1022.65 1022.66 1022.66 1022.71 1022.68 1022.60 1022.58 1022.54 1022.52 1022.50 1022.39 1022.28 1022.19 1021.99 1021.85 1021.65 1021.46 1021.27 1021.12 1021.03 1020.92 1020.81 1020.67 1020.55 1020.36 1020.23 1020.16 1020.08 1019.96 1019.79 1019.67 1019.64 1019.63 1019.63 1019.65 1019.52 1019.03 1018.60 1019.34
1021.07 1021.63 1022.87 1022.90 1022.85 1022.82 1022.90 1022.95 1022.97 1022.99 1022.95 1022.93 1022.87 1022.84 1022.73 1022.64 1022.58 1022.37 1022.13 1021.90 1021.67 1021.48 1021.37 1021.30 1021.18 1021.08 1020.92 1020.76 1020.56 1020.41 1020.28 1020.22 1020.13 1020.07 1019.84 1019.59 1019.96 1020.05 1020.04 1019.93 1019.71 1019.57 1019.75
1021.36 1021.83 1022.25 1022.99 1022.94 1023.02 1023.09 1023.24 1023.25 1023.29 1023.29 1023.26 1023.21 1023.15 1023.05 1022.96 1022.85 1022.62 1022.36 1022.12 1021.91 1021.77 1021.63 1021.53 1021.45 1021.38 1021.24 1021.12 1020.94 1020.74 1020.59 1020.41 1020.26 1020.00 1019.42 1018.70 1019.41 1020.37 1020.38 1020.33 1020.29 1020.10 1020.03
1021.67 1022.11 1022.11 1023.15 1023.10 1023.25 1023.44 1023.62 1023.73 1023.74 1023.67 1023.58 1023.52 1023.45 1023.35 1023.29 1023.11 1022.91 1022.70 1022.47 1022.28 1022.06 1021.93 1021.87 1021.81 1021.77 1021.75 1021.63 1021.48 1021.33 1021.06 1020.70 1020.39 1019.93 1019.15 1018.92 1019.09 1020.42 1020.52 1020.56 1020.49 1020.42 1020.35
1021.97 1022.39 1023.01 1023.41 1023.40 1023.51 1023.78 1023.96 1024.17 1024.12 1024.00 1023.95 1023.88 1023.79 1023.74 1023.68 1023.54 1023.42 1023.21 1022.97 1022.70 1022.63 1022.52 1022.42 1022.37 1022.34 1022.25 1022.13 1021.99 1021.77 1021.41 1020.97 1020.33 1019.37 1019.58 1020.14 1019.99 1020.68 1020.84 1020.84 1020.37 1020.54 1020.72
1022.06 1022.50 1023.60 1023.74 1023.69 1023.80 1023.99 1024.28 1024.41 1024.40 1024.30 1024.28 1024.25 1024.11 1024.03 1023.91 1023.88 1023.80 1023.67 1023.47 1023.30 1023.15 1023.04 1022.95 1022.89 1022.84 1022.75 1022.59 1022.45 1022.18 1021.75 1021.13 1020.17 1020.28 1020.90 1021.21 1021.15 1021.37 1021.15 1021.15 1021.17 1021.08 1020.92
1022.49 1022.80 1023.30 1023.90 1023.98 1024.03 1024.28 1024.55 1024.76 1024.79 1024.73 1024.63 1024.58 1024.50 1024.42 1024.34 1024.29 1024.24 1024.15 1023.96 1023.87 1023.76 1023.63 1023.57 1023.49 1023.39 1023.27 1023.14 1022.97 1022.65 1022.28 1021.71 1020.78 1020.80 1020.73 1021.48 1021.95 1021.91 1021.78 1021.62 1021.54 1021.32 1021.01
1022.99 1023.21 1023.64 1024.34 1024.46 1024.37 1024.47 1024.69 1024.90 1025.06 1025.09 1025.03 1024.97 1024.96 1024.92 1024.82 1024.76 1024.74 1024.68 1024.60 1024.49 1024.37 1024.29 1024.20 1024.12 1023.98 1023.83 1023.69 1023.57 1023.20 1022.73 1022.13 1021.59 1021.51 1021.70 1022.23 1022.84 1022.53 1022.24 1022.06 1021.92 1021.62 1021.31
1023.23 1023.46 1023.67 1023.91 1024.70 1025.02 1024.99 1024.97 1025.10 1025.28 1025.32 1025.41 1025.46 1025.47 1025.44 1025.44 1025.39 1025.30 1025.22 1025.13 1025.05 1024.96 1024.83 1024.75 1024.65 1024.56 1024.44 1024.35 1024.18 1023.81 1023.37 1022.73 1021.90 1022.20 1022.30 1022.93 1023.41 1023.10 1022.93 1022.73 1022.45 1022.22 1021.92
1023.13 1023.49 1023.85 1024.19 1024.53 1024.84 1025.03 1025.41 1025.41 1025.51 1025.59 1025.71 1025.84 1025.87 1025.77 1025.73 1025.68 1025.61 1025.51 1025.71 1025.59 1025.52 1025.44 1025.29 1025.18 1025.03 1024.89 1024.84 1024.68 1024.23 1023.71 1023.04 1022.59 1022.58 1023.30 1023.84 1023.78 1023.48 1023.42 1023.31 1023.12 1022.85 1022.53
1023.09 1023.52 1023.87 1024.25 1024.74 1025.11 1025.24 1025.76 1025.82 1025.93 1025.95 1026.01 1026.03 1026.03 1025.66 1025.33 1025.48 1025.86 1026.44 1026.26 1026.16 1026.09 1026.00 1025.86 1025.70 1025.39 1025.16 1024.99 1024.99 1024.56 1023.74 1023.46 1023.25 1023.51 1024.21 1024.80 1024.18 1023.87 1023.73 1023.63 1023.49 1023.32 1023.11
1022.93 1023.47 1023.98 1024.33 1024.70 1024.98 1025.15 1025.53 1025.68 1025.68 1025.55 1025.71 1025.85 1025.92 1025.81 1026.17 1026.23 1026.39 1026.73 1026.78 1026.62 1026.45 1026.32 1026.17 1025.85 1025.41 1024.59 1024.40 1024.39 1024.39 1024.07 1024.03 1023.91 1024.38 1025.36 1025.52 1024.95 1024.35 1024.08 1023.90 1023.71 1023.59 1023.48
1022.92 1023.42 1023.99 1024.57 1024.88 1024.77 1025.17 1025.15 1025.23 1025.60 1025.90 1026.22 1026.31 1026.16 1026.44 1026.32 1026.37 1026.18 1026.19 1026.18 1026.18 1026.31 1025.83 1025.88 1025.63 1025.69 1025.78 1025.27 1025.13 1024.99 1024.60 1024.34 1024.34 1024.91 1026.35 1026.02 1025.37 1024.88 1024.52 1024.35 1024.25 1024.10 1023.89
1022.78 1023.66 1024.09 1024.50 1025.05 1025.04 1024.94 1024.96 1025.34 1025.51 1025.92 1026.10 1026.62 1026.67 1026.57 1026.46 1026.63 1026.49 1026.42 1026.46 1026.48 1026.51 1026.36 1026.15 1026.24 1026.45 1026.32 1026.22 1025.96 1025.77 1025.57 1025.10 1024.96 1025.11 1026.62 1026.70 1026.20 1025.67 1025.16 1024.83 1024.58 1024.26 1024.28
1022.61 1023.54 1024.13 1024.68 1025.09 1025.25 1025.12 1025.26 1025.42 1025.77 1025.89 1026.45 1026.62 1026.94 1026.74 1026.81 1027.04 1026.97 1027.09 1026.99 1026.91 1026.87 1026.76 1026.67 1026.62 1026.58 1026.40 1026.60 1026.50 1026.27 1026.13 1025.99 1025.89 1025.59 1026.12 1027.03 1026.81 1026.49 1026.14 1025.71 1025.32 1024.84 1024.48
1022.55 1023.54 1024.24 1024.75 1025.19 1025.33 1025.28 1025.64 1025.88 1025.99 1026.56 1026.52 1026.83 1027.29 1027.40 1027.30 1027.38 1027.27 1027.23 1027.27 1027.37 1027.40 1027.46 1027.42 1027.28 1026.85 1026.73 1026.69 1026.87 1026.91 1026.72 1026.43 1026.50 1026.41 1026.09 1026.31 1026.92 1026.92 1026.80 1026.48 1026.06 1025.62 1025.13
1022.41 1023.39 1024.19 1024.76 1025.44 1025.54 1025.69 1025.88 1025.92 1026.32 1026.38 1026.67 1027.23 1027.68 1027.76 1027.69 1027.81 1027.60 1027.56 1027.60 1027.78 1027.88 1027.81 1027.61 1027.41 1027.29 1026.93 1026.79 1026.89 1026.98 1026.74 1026.92 1026.87 1026.87 1026.53 1026.36 1026.20 1026.50 1026.83 1026.88 1026.63 1026.21 1025.71
1022.10 1023.28 1024.04 1024.46 1025.30 1025.67 1025.78 1025.98 1026.04 1026.51 1026.60 1026.94 1027.34 1027.82 1028.11 1028.13 1028.06 1027.92 1027.98 1028.14 1028.16 1028.08 1027.99 1027.98 1027.65 1027.27 1027.17 1026.93 1026.99 1026.88 1026.79 1026.90 1027.13 1027.07 1027.07 1027.00 1026.89 1026.56 1026.28 1026.84 1026.82 1026.58 1026.26
1021.96 1022.97 1023.85 1024.47 1025.11 1025.57 1025.95 1026.02 1026.34 1026.87 1026.82 1027.22 1027.62 1027.92 1028.41 1028.48 1028.47 1028.23 1028.34 1028.62 1028.42 1028.35 1028.41 1028.19 1028.20 1027.98 1027.57 1027.26 1026.87 1026.95 1027.20 1027.05 1027.22 1027.16 1027.36 1027.23 1027.33 1027.12 1026.83 1026.66 1026.69 1026.56 1026.49
1021.98 1022.87 1023.61 1024.31 1024.96 1025.46 1025.87 1026.25 1026.41 1026.70 1027.14 1027.51 1027.71 1028.09 1028.65 1028.71 1028.79 1028.59 1028.76 1028.87 1028.53 1028.39 1028.57 1028.70 1028.73 1028.41 1028.41 1028.16 1027.23 1026.76 1027.18 1027.38 1027.38 1027.37 1027.33 1027.19 1027.35 1027.35 1027.14 1027.06 1026.64 1026.06 1026.39
1021.86 1022.70 1023.38 1024.00 1024.77 1025.21 1025.53 1025.69 1026.01 1026.51 1027.12 1027.44 1027.85 1028.47 1028.72 1028.88 1029.06 1029.04 1028.99 1029.03 1028.96 1029.02 1029.38 1029.27 1028.77 1028.70 1028.45 1028.72 1027.47 1026.89 1026.22 1026.79 1027.38 1027.11 1027.05 1027.23 1027.25 1027.29 1027.13 1027.02 1026.80 1026.53 1026.09
1021.30 1022.27 1023.06 1023.67 1024.47 1024.78 1024.92 1025.27 1025.75 1026.28 1026.81 1027.32 1027.98 1028.57 1028.85 1029.10 1029.30 1029.24 1029.18 1029.19 1029.28 1029.32 1029.71 1029.73 1029.53 1029.08 1028.67 1029.00 1028.87 1027.59 1026.35 1025.82 1026.39 1026.70 1027.07 1027.21 1027.42 1027.55 1027.15 1027.12 1027.24 1026.96 1026.71
1020.65 1021.53 1022.40 1023.15 1024.01 1024.44 1024.66 1025.29 1025.97 1026.53 1027.20 1027.59 1028.08 1028.40 1028.87 1029.19 1029.39 1029.50 1029.64 1029.78 1030.01 1029.87 1029.99 1030.15 1030.17 1029.90 1029.30 1029.11 1029.51 1029.34 1027.96 1027.43 1027.62 1026.41 1026.91 1027.17 1027.46 1027.76 1027.64 1027.39 1027.21 1027.28 1026.82
1019.77 1020.96 1021.93 1022.68 1023.58 1024.18 1024.69 1025.11 1025.58 1025.74 1026.11 1026.59 1027.45 1028.00 1028.79 1029.25 1029.50 1029.83 1030.12 1030.29 1030.39 1030.32 1030.49 1030.42 1030.64 1030.58 1030.40 1029.81 1029.92 1029.99 1029.98 1029.62 1028.74 1027.49 1027.59 1027.58 1027.82 1027.80 1027.77 1027.54 1027.51 1027.21 1027.36
1019.21 1020.31 1021.33 1022.28 1023.15 1023.80 1024.51 1024.64 1025.21 1025.21 1025.66 1026.48 1027.19 1028.16 1028.62 1029.24 1029.65 1030.06 1030.39 1030.53 1030.57 1030.50 1031.18 1031.29 1031.24 1031.23 1031.02 1031.05 1030.78 1030.67 1030.54 1030.09 1029.71 1029.20 1028.31 1028.12 1028.25 1027.92 1027.81 1027.83 1027.81 1027.19 1027.87
1018.85 1020.00 1020.87 1021.71 1022.56 1023.29 1024.05 1024.45 1024.80 1025.06 1025.46 1026.10 1026.93 1027.72 1028.34 1028.88 1029.61 1030.23 1030.42 1030.65 1030.92 1031.55 1032.24 1032.17 1031.96 1032.13 1031.98 1031.84 1031.77 1031.41 1031.18 1030.88 1030.47 1030.20 1029.57 1029.08 1028.67 1028.22 1028.10 1027.89 1027.71 1027.53 1027.84
Thickness
5684 5677 5669 5669 5669 5668 5669 5668 5668 5669 5669 5668 5668 5668 5668 5668 5668 5669 5669 5669 5670 5671 5671 5671 5671 5671 5671 5671 5672 5672 5671 5672 5672 5672 5671 5669 5668 5667 5666 5667 5670 5670 5664
5683 5677 5668 5666 5667 5667 5667 5668 5668 5667 5667 5667 5667 5666 5666 5667 5667 5668 5669 5670 5670 5671 5670 5670 5669 5669 5669 5670 5670 5670 5671 5670 5670 5669 5670 5670 5666 5664 5663 5662 5662 5661 5659
5681 5676 5671 5666 5666 5666 5666 5665 5665 5665 5665 5666 5666 5666 5666 5666 5666 5666 5667 5668 5668 5668 5668 5668 5667 5667 5667 5667 5667 5668 5668 5668 5668 5668 5671 5673 5667 5659 5658 5657 5655 5655 5654
5677 5674 5674 5667 5666 5665 5664 5662 5661 5662 5663 5664 5664 5664 5664 5663 5663 5664 5664 5665 5666 5666 5666 5666 5666 5665 5664 5663 5663 5663 5663 5664 5665 5667 5670 5670 5667 5656 5654 5652 5651 5650 5649
5674 5670 5667 5666 5666 5666 5663 5662 5660 5659 5660 5660 5660 5660 5660 5660 5660 5660 5661 5662 5663 5663 5662 5662 5662 5661 5660 5659 5659 5658 5660 5661 5663 5668 5664 5658 5658 5651 5647 5647 5648 5646 5644
5673 5670 5664 5664 5665 5665 5663 5661 5659 5658 5658 5658 5657 5657 5657 5657 5657 5657 5657 5658 5658 5658 5658 5657 5656 5655 5655 5654 5654 5654 5655 5657 5661 5657 5652 5648 5646 5644 5643 5642 5640 5639 5639
5672 5670 5667 5663 5663 5664 5662 5659 5657 5656 5655 5655 5654 5654 5654 5653 5653 5653 5654 5654 5654 5653 5653 5651 5650 5649 5649 5648 5647 5648 5648 5649 5653 5650 5649 5642 5637 5636 5635 5634 5634 5633 5635
5668 5666 5663 5659 5659 5660 5660 5658 5656 5654 5652 5651 5651 5650 5649 5649 5649 5649 5649 5648 5648 5647 5646 5645 5643 5643 5642 5641 5640 5641 5642 5643 5643 5641 5638 5631 5626 5627 5627 5626 5626 5626 5628
5667 5664 5662 5660 5656 5654 5655 5654 5653 5651 5649 5647 5646 5645 5645 5645 5644 5644 5644 5643 5642 5641 5640 5639 5637 5636 5634 5633 5632 5632 5633 5634 5636 5631 5628 5621 5615 5616 5616 5616 5616 5616 5617
5667 5664 5661 5658 5655 5653 5652 5649 5648 5647 5646 5644 5643 5642 5642 5641 5641 5640 5639 5637 5636 5634 5632 5631 5630 5629 5627 5625 5623 5624 5624 5625 5624 5622 5614 5607 5605 5605 5604 5603 5604 5604 5605
5667 5663 5661 5658 5653 5650 5648 5645 5644 5643 5642 5641 5640 5639 5640 5641 5639 5635 5631 5630 5628 5627 5625 5624 5622 5621 5620 5618 5616 5615 5617 5614 5612 5607 5599 5593 5595 5594 5593 5592 5592 5592 5593
5666 5662 5658 5656 5653 5650 5647 5644 5642 5641 5641 5639 5638 5636 5636 5633 5631 5629 5625 5623 5622 5620 5619 5617 5616 5616 5618 5615 5613 5609 5606 5603 5600 5593 5584 5581 5582 5583 5583 5582 5581 5581 5582
5664 5662 5657 5653 5650 5649 5646 5644 5643 5639 5637 5634 5633 5633 5630 5628 5626 5626 5624 5622 5619 5616 5616 5612 5611 5607 5603 5603 5600 5597 5597 5595 5591 5584 5571 5570 5571 5571 5571 5571 5570 5569 5570
5663 5656 5653 5650 5647 5645 5645 5644 5640 5638 5634 5632 5628 5627 5626 5625 5622 5620 5618 5615 5612 5609 5607 5605 5601 5596 5593 5590 5588 5586 5584 5584 5581 5576 5563 5559 5559 5558 5558 5558 5559 5560 5559
5661 5655 5650 5646 5643 5641 5641 5639 5637 5634 5632 5627 5625 5621 5621 5619 5615 5613 5610 5607 5605 5602 5599 5596 5592 5589 5586 5581 5578 5575 5572 5570 5567 5564 5557 5550 5547 5546 5545 5545 5546 5548 5549
5660 5653 5647 5642 5639 5637 5637 5634 5632 5630 5625 5623 5620 5616 5613 5612 5609 5607 5604 5601 5597 5593 5589 5585 5582 5581 5578 5574 5569 5565 5562 5561 5556 5552 5550 5546 5541 5538 5536 5535 5536 5538 5540
5659 5652 5645 5640 5634 5633 5631 5630 5628 5624 5622 5619 5614 5609 5607 5605 5601 5600 5597 5594 5589 5584 5581 5578 5576 5572 5571 5568 5563 5559 5557 5551 5547 5542 5541 5539 5538 5536 5532 5530 5529 5530 5532
5658 5649 5643 5640 5633 5630 5628 5626 5624 5619 5617 5614 5610 5604 5600 5597 5595 5593 5589 5584 5581 5577 5574 5570 5568 5566 5563 5561 5557 5553 5549 5544 5539 5536 5532 5531 5530 5531 5532 5528 5526 5525 5525
5656 5649 5642 5638 5632 5627 5624 5622 5619 5614 5612 5608 5603 5599 5594 5591 5588 5586 5582 5576 5573 5569 5565 5562 5558 5556 5554 5552 5552 5547 5541 5537 5533 5530 5526 5525 5524 5524 5523 5523 5520 5520 5517
5653 5647 5642 5637 5630 5625 5621 5617 5615 5611 5606 5602 5599 5594 5588 5585 5581 5579 5574 5570 5567 5564 5559 5554 5550 5548 5544 5541 5544 5543 5535 5529 5526 5524 5521 5521 5518 5516 5515 5512 5512 5513 5509
5651 5645 5640 5635 5628 5623 5620 5618 5614 5609 5603 5598 5593 5587 5583 5579 5574 5571 5567 5563 5559 5556 5551 5547 5546 5542 5540 5532 5538 5537 5539 5532 5523 5520 5517 5514 5512 5508 5506 5504 5502 5499 5498
5651 5645 5638 5633 5626 5622 5620 5616 5611 5607 5600 5594 5588 5582 5577 5572 5567 5564 5560 5557 5553 5549 5543 5540 5536 5535 5535 5527 5523 5529 5535 5536 5527 5519 5512 5506 5503 5496 5493 5489 5484 5482 5480
5653 5646 5640 5634 5625 5621 5618 5611 5606 5600 5594 5589 5583 5578 5572 5566 5561 5556 5552 5548 5544 5541 5537 5532 5528 5525 5525 5522 5515 5511 5518 5519 5510 5516 5506 5498 5491 5484 5479 5477 5473 5468 5465
5658 5649 5641 5634 5625 5619 5613 5608 5604 5602 5598 5593 5583 5576 5567 5560 5555 5549 5544 5540 5536 5534 5529 5525 5519 5516 5512 5512 5506 5500 5495 5492 5493 5500 5494 5487 5478 5471 5465 5460 5453 5449 5443
5660 5651 5642 5633 5625 5618 5610 5608 5603 5602 5598 5590 5581 5570 5564 5555 5549 5543 5538 5534 5531 5528 5520 5515 5511 5506 5502 5497 5494 5490 5485 5483 5480 5476 5476 5472 5463 5456 5449 5442 5434 5430 5416
5658 5649 5642 5634 5626 5619 5611 5606 5601 5598 5594 5587 5578 5569 5560 5552 5544 5538 5533 5529 5524 5517 5509 5505 5501 5495 5490 5487 5481 5479 5474 5469 5464 5458 5455 5450 5444 5440 5432 5424 5416 5406 5392